User: anonymous   Login
Location: Albany
(35.0000°S, 118.0000°E)
Time: 08:03:20
(UTC-04:00)
Language:

Cosmos 1346 Rocket - Orbit

View from above orbital plane
View from above orbital plane
View from above satellite
View from above satellite

Ground track
Ground track

The orbit data is extracted from the following two-line orbital elements,

1 13121U 82027B   17116.91772909 +.00001367 +00000-0 +86012-4 0  9995
2 13121 081.1685 178.0892 0027584 338.9740 021.0348 15.08263166908962
Epoch (UTC): 26 April 2017 22:01:31
Eccentricity: 0.0027584
inclination: 81.1685°
perigee height: 522 km
apogee height: 560 km
right ascension of ascending node: 178.0892°
argument of perigee: 338.9740°
revolutions per day: 15.08263166
mean anomaly at epoch: 21.0348°
orbit number at epoch: 90896

The dashed part of the orbit path shows where the satellite is in the earth's shadow,  

DLR